Tracking 23731 objects as of 26-Sep-2021
HD Live streaming from Space Station
objects crossing your sky now

STARLINK-1185

Track STARLINK-1185 now!
10-day predictions
STARLINK-1185 is classified as:


NORAD ID: 45087
Int'l Code: 2020-006AV
Perigee: 553.6 km
Apogee: 555.2 km
Inclination: 53.1 °
Period: 95.6 minutes
Semi major axis: 6925 km
RCS: Unknown
Launch date: January 29, 2020
Source: United States (US)
Launch site: AIR FORCE EASTERN TEST RANGE (AFETR)
aabbcc
Your satellite tracking list
Your tracking list is empty




NASA's NSSDC Master Catalog

Two Line Element Set (TLE):
1 45087U 20006AV  21269.50981264  .00007069  00000-0  49323-3 0  9993
2 45087  53.0556 342.3314 0001117 119.3960 240.7140 15.06378859 92077
Source of the keplerian elements: AFSPC